Regional Weather Roundup
Issued by NWS Grand Forks, ND

Home | Current Version | Previous Version | Text Only | Print | Product List | Glossary Off
Versions: 1 2 3 4 5 6 7 8 9 10 11 12 13 14 15 16 17 18 19 20 21 22 23 24 25 26 27 28 29 30 31 32 33 34 35 36 37 38 39 40 41 42 43 44 45 46 47 48 49 50

000
ASUS43 KFGF 030510
RWRFGF
PRAIRIE TO PINES  WEATHER ROUNDUP
NATIONAL WEATHER SERVICE EASTERN NORTH DAKOTA/GRAND FORKS ND
1200 AM CDT MON AUG 03 2015

 **SATELLITE DATA USED TO AUGMENT SKY COVER AT AUTOMATED STATIONS**
 *****  WEATHER ACROSS EASTERN NORTH DAKOTA  *****

CITY           SKY/WX    TMP DP  RH WIND       PRES   REMARKS
GRAND FORKS    CLEAR     57  49  74 NW7       29.86R
GRAND FRKS AFB CLEAR     61  49  65 N10       29.87R
DEVILS LAKE    CLEAR     59  46  63 NW7       29.91S
FARGO          CLEAR     58  51  78 W7        29.87R
WAHPETON ARPT  CLEAR     54  46  76 W7        29.89R
$$

 ***** WEATHER ACROSS CENTRAL AND WESTERN NORTH DAKOTA  *****

CITY           SKY/WX    TMP DP  RH WIND       PRES   REMARKS
BISMARCK       CLEAR     58  52  80 CALM      29.98R
MINOT          CLEAR     61  50  67 W8        29.96R
JAMESTOWN      CLEAR     60  52  74 W6        29.92S
MINOT AFB      CLEAR     54  51  88 NW7       29.96R
GARRISON         N/A     57  53  86 NW7       29.98R
WILLISTON      CLEAR     65  49  56 N3        30.02R
DICKINSON      CLEAR     59  49  69 CALM      30.02R
HETTINGER      CLEAR     54  47  77 CALM      30.04R
$$

 *****  OTHER AIRPORT OBSERVATIONS IN OUR AREA  *****

CITY           SKY/WX    TMP DP  RH WIND       PRES   REMARKS
WALHALLA       FAIR      57  50  77 MISG      29.88S
GRAFTON AIRPOR FAIR      59  52  77 NW7       29.87S
VALLEY CITY AR FAIR      57  55  94 NW7       29.92R
CANDO          NOT AVBL
CAVALIER APRT  FAIR      55  48  76 NW6       29.87S
GWINNER        FAIR      61  54  77 W7        29.92R
SHEYENNE NWR     N/A     58  53  83 NW3       29.95S
ROLLA          FAIR      57  48  72 NW10      29.94F
 ***** THE ABOVE OBSERVATIONS ARE NON NWS ARE NOT QUALITY
       CONTROLLED AND MAY MIS-REPORT RAIN FOR SNOW...
$$

  *****  WEATHER ACROSS NORTHERN MINNESOTA  *****

CITY           SKY/WX    TMP DP  RH WIND       PRES   REMARKS
FLAG ISLAND    CLOUDY    64  52  63 NW17G23   29.77S
WARROAD        CLOUDY    61  46  59 W6        29.81S
ROSEAU         MOCLDY    57  48  72 W8        29.82S
HALLOCK        PTCLDY    55  48  76 NW6       29.85S
THF RVR FALLS  CLEAR     55  48  76 NW5       29.85S
BAUDETTE       CLOUDY    60  46  59 W8        29.78S
WASKISH        CLEAR     63  48  59 W10G16    29.80S
CROOKSTON      CLEAR     54  50  87 NW3       29.86S
STEPHEN NDAWN    N/A     55  52  88 W3          N/A
GREENBUSH NDAW   N/A     55  50  82 NW3         N/A
$$
  *****  WEATHER ACROSS CENTRAL AND WEST MINNESOTA  *****

CITY           SKY/WX    TMP DP  RH WIND       PRES   REMARKS
FOSSTON        CLEAR     52  46  82 CALM      29.86S
BEMIDJI        CLEAR     56  46  69 W6        29.84R
PARK RAPIDS    PTCLDY    55  49  80 CALM      29.85R
ELBOW LAKE     FAIR      59  49  69 W3        29.88S
WADENA         CLEAR     55  48  76 W5        29.86R
DETROIT LAKES  CLEAR     63  50  63 NW8       29.88R
MOORHEAD       CLEAR     57  52  82 NW8       29.88S
FERGUS FALLS   CLEAR     57  50  77 NW3       29.88S
MORRIS MN      CLEAR     57  52  82 W5        29.89S
STAPLES        CLEAR     55  46  71 W5        29.85S
$$
  *****  WEATHER ELSEWHERE ACROSS MINNESOTA  *****

CITY           SKY/WX    TMP DP  RH WIND       PRES   REMARKS
DULUTH         MOCLDY    63  48  58 W6        29.77R
INTRNTL FALLS  MOCLDY    58  49  72 W6        29.75S
ELY            CLOUDY    57  48  72 CALM      29.75S
CLOQUET        CLEAR     61  45  55 W8        29.79R
WHEATON        CLEAR     57  52  82 W5        29.91S
BRAINERD       CLEAR     60  50  69 W7        29.84R
HIBBING        CLEAR     61  44  53 W6        29.78R
ALEXANDRIA     CLEAR     58  52  80 W7        29.90R
SAINT CLOUD    CLEAR     58  50  75 W6        29.86R
MINNEAPOLIS    CLEAR     67  51  56 NW8       29.85R
$$

  *****  WEATHER ACROSS SOUTH DAKOTA  *****

CITY           SKY/WX    TMP DP  RH WIND       PRES   REMARKS
SIOUX FALLS    CLEAR     65  58  78 CALM      29.93R
BROOKINGS      CLEAR     63  55  77 CALM      29.95S
WATERTOWN      CLEAR     63  56  78 CALM      29.94S
HURON          CLEAR     62  59  90 W3        29.93R
SISSETON         N/A     60  51  72 W7        29.90S
ABERDEEN       CLEAR     63  55  75 N3        29.94R
MITCHELL       CLEAR     65  59  81 CALM      29.94R
PIERRE         CLEAR     63  53  70 NE9       29.96R
MOBRIDGE       CLEAR     59  56  89 N5        29.96R
RAPID CITY     CLEAR     66  53  63 NE3       30.03S
$$

  *****  SOME WEATHER IN NEARBY STATES *****

CITY           SKY/WX    TMP DP  RH WIND       PRES   REMARKS
GLASGOW MT     CLEAR     65  48  54 E10       30.01S
GREAT FALLS MT CLEAR     68  46  45 E7        29.96S
CHEYENNE WY    CLOUDY    69  50  50 W3        30.14S
SCOTTSBLUFF NE MOCLDY    69  58  67 E8        30.00S
OMAHA NE       PTCLDY    79  72  79 CALM      29.87R
DES MOINES IA  PTCLDY    74  63  68 N8        29.85R
DAVENPORT IA   MOCLDY    74  62  66 W7        29.78R
CHICAGO IL     CLOUDY    68  67  96 CALM      29.74R
EAU CLAIRE WI  CLEAR     64  48  56 NW3       29.80R
LA CROSSE WI   MOCLDY    74  59  59 NW15      29.79R
$$

  *****  SOME NATIONAL WEATHER *****

CITY           SKY/WX    TMP DP  RH WIND       PRES   REMARKS
LA GUARDIA NY  PTCLDY    81  58  45 S8        29.86R
RALEIGH NC     PTCLDY    72  62  71 CALM      29.95S
ATLANTA GA     MOCLDY    79  68  69 SE6       29.92S
NEW ORLEANS LA PTCLDY    83  75  77 SW6       29.88S HX  90
OKLAHOMA CITY  CLOUDY    74  67  78 SE7       29.92R
ALBUQUERQUE NM CLOUDY    73  55  53 CALM      30.15R
SALT LAKE CITY CLOUDY    77  49  37 SE13      29.97S
LOS ANGELES CA PTCLDY    70  64  81 SW6       29.86R
BOISE ID       MOCLDY    85  44  23 CALM      29.77S
SEATTLE WA     CLOUDY    76  53  44 N8        29.88F
$$

*** WEATHER ACROSS MANITOBA...SASKATCHEWAN AND ONTARIO ***
                ***ONTARIO***

CITY           SKY/WX    TMP DP  RH WIND       PRES   REMARKS
GERALDTON      MOCLDY    54  50  87 W5        29.59S
THUNDER BAY    MOCLDY    57  54  88 W7        29.66S
SIOUX LOOKOUT  CLOUDY    55  50  82 NW12      29.69F
TORONTO        LGT RAIN  64  61  88 S10G17    29.64F
BIG TROUT LK   LGT RAIN  48  46  93 N5        29.58  FOG
PICKLE LAKE    NOT AVBL
DRYDEN         MOCLDY    57  50  77 W7        29.72S
KENORA         CLOUDY    59  50  72 NW9       29.77S
$$
                *** MANITOBA***

CITY           SKY/WX    TMP DP  RH WIND       PRES   REMARKS
BRANDON        CLEAR     48  46  93 NW7       29.91S
DAUPHIN        CLEAR     50  46  87 W7        29.90R
ISLAND LAKE    LGT RAIN  54  52  94 NW9       29.70F
PILOT MOUND      N/A     52  48  87 NW6         N/A
THE PAS        MOCLDY    63  48  59 NW8       29.89S
THOMPSON       CLOUDY    52  50  93 NW8       29.80S
WINNIPEG       MOCLDY    61  52  72 NW7       29.85S
LYNN LAKE      CLEAR     52  48  87 NE2       29.88R
CHURCHILL      CLOUDY    45  43  93 NE12      29.79R
GILLAM         CLOUDY    48  46  93 N16       29.72S FOG
$$
                ***SASKATCHEWAN***

CITY           SKY/WX    TMP DP  RH WIND       PRES   REMARKS
ESTEVAN        PTCLDY    54  50  87 NW8       30.00S
KINDERSLEY     MOCLDY    59  52  77 SE10      30.01R
LLOYDMINSTER   CLEAR     59  50  72 SE5       29.99S
PRINCE ALBERT  CLEAR     54  52  94 CALM      29.96S
REGINA         PTCLDY    55  52  88 W3        30.01R
YORKTON        CLEAR     55  52  88 W10       29.95S
N. BATTLEFORD  CLEAR     55  50  82 CALM      30.01S
LA RONGE       CLEAR     54  43  66 CALM      29.93R
SASKATOON      PTCLDY    61  52  72 CALM      30.00S
SWIFT CURRENT  CLEAR     59  52  77 SE8       30.03S
$$
NOTE: THESE ARE AUTOMATED STATIONS WITH LIMITED QUALITY CONTROL
      "FAIR" INDICATES FEW OR NO CLOUDS BELOW 12,000 FEET WITH NO
      SIGNIFICANT WEATHER AND/OR OBSTRUCTIONS TO VISIBILITY.
      SKY/WX - SKY CONDITION AND SIGNIFICANT WEATHER.
      TMP - AIR TEMPERATURE.    DP   - DEWPOINT TEMPERATURE.
      RH  - RELATIVE HUMIDITY.  PRES - PRESSURE.
      HX  - HEAT INDEX.         WCI  - WIND CHILL INDEX.
$


USA.gov is the U.S. government's official web portal to all federal, state and local government web resources and services.